ISR043 LLBG-LLER

Flight info

Callsign ISR043
Flight time N/A
Altitude 17000
Route TOMAL J10 NURIT
Aircraft A320/M-SDE3FGHIRWY/LB1

Departure

Time 2026-04-30 15:17
Airport Ben Gurion International Airport (LLBG)

Arrival

Time N/A
Airport Ramon International Airport (LLER)
Time Latitude Longitude Altitude Speed Heading
2026-04-30 14:40 32.00186 34.87851 120 ft 0 kts 121°
2026-04-30 14:49 32.00187 34.87849 120 ft 2 kts 121°
2026-04-30 14:49 32.00201 34.87823 116 ft 4 kts 122°
2026-04-30 14:50 32.00222 34.87772 116 ft 4 kts 73°
2026-04-30 14:50 32.00208 34.87748 115 ft 4 kts 37°
2026-04-30 14:51 32.00168 34.87716 120 ft 4 kts 32°
2026-04-30 14:51 32.00145 34.87699 116 ft 4 kts 31°
2026-04-30 14:51 32.00118 34.87680 116 ft 0 kts 31°
2026-04-30 15:00 32.00119 34.87681 93 ft 1 kts 31°
2026-04-30 15:00 32.00166 34.87714 117 ft 7 kts 31°
2026-04-30 15:01 32.00279 34.87795 119 ft 12 kts 31°
2026-04-30 15:01 32.00331 34.87832 118 ft 14 kts 31°
2026-04-30 15:01 32.00516 34.87948 120 ft 0 kts
2026-04-30 15:02 32.00528 34.87946 116 ft 3 kts 350°
2026-04-30 15:02 32.00548 34.87936 118 ft 0 kts 332°
2026-04-30 15:03 32.00549 34.87936 118 ft 0 kts 332°
2026-04-30 15:06 32.00595 34.87929 120 ft 7 kts 17°
2026-04-30 15:06 32.00717 34.88010 116 ft 13 kts 31°
2026-04-30 15:07 32.00900 34.88145 118 ft 18 kts 31°
2026-04-30 15:07 32.01148 34.88323 118 ft 23 kts 31°
2026-04-30 15:08 32.01407 34.88594 119 ft 28 kts 58°
2026-04-30 15:08 32.01552 34.89193 118 ft 24 kts 79°
2026-04-30 15:09 32.01617 34.89624 118 ft 29 kts 75°
2026-04-30 15:09 32.01662 34.89691 118 ft 0 kts 36°
2026-04-30 15:11 32.01663 34.89692 118 ft 1 kts 36°
2026-04-30 15:12 32.01772 34.89756 118 ft 11 kts 20°
2026-04-30 15:13 32.01835 34.89668 118 ft 11 kts 257°
2026-04-30 15:14 32.01785 34.89339 118 ft 0 kts 259°
2026-04-30 15:16 32.01652 34.88242 166 ft 141 kts 268°
2026-04-30 15:17 31.98758 34.85203 2728 ft 215 kts 147°
2026-04-30 15:18 31.94633 34.95543 5733 ft 340 kts 114°
2026-04-30 15:19 31.92124 35.02410 8947 ft 325 kts 117°